DAL3341 KJAX-KMSY

Flight info

Callsign DAL3341
Flight time 1h 33m
Altitude 40000
Route JETIN2 CAPPS SZW CEW J2 SJI GPT MNSTR1
Aircraft A359/H-SDE2E3GHIJ1J3J4J5LM1ORWXY/LB1D1

Departure

Time 2026-05-05 14:04
Airport Jacksonville International Airport (KJAX)

Arrival

Time 2026-05-05 15:37
Airport Louis Armstrong New Orleans International Airport (KMSY)
Time Latitude Longitude Altitude Speed Heading
2026-05-05 13:50 30.49301 -81.68758 40 ft 0 kts 219°
2026-05-05 13:55 30.49313 -81.68747 40 ft 4 kts 219°
2026-05-05 13:55 30.49334 -81.68727 37 ft 4 kts 219°
2026-05-05 13:55 30.49355 -81.68707 39 ft 4 kts 219°
2026-05-05 13:55 30.49370 -81.68692 38 ft 0 kts 219°
2026-05-05 13:58 30.49370 -81.68693 38 ft 2 kts 225°
2026-05-05 13:59 30.49378 -81.68860 41 ft 13 kts 272°
2026-05-05 13:59 30.49359 -81.68969 41 ft 15 kts 229°
2026-05-05 14:00 30.49140 -81.69034 41 ft 18 kts 197°
2026-05-05 14:00 30.49076 -81.69089 41 ft 17 kts 232°
2026-05-05 14:00 30.48972 -81.69244 41 ft 20 kts 232°
2026-05-05 14:00 30.48923 -81.69383 41 ft 19 kts 289°
2026-05-05 14:01 30.49001 -81.69499 34 ft 19 kts 310°
2026-05-05 14:01 30.49091 -81.69623 41 ft 21 kts 310°
2026-05-05 14:01 30.49192 -81.69761 41 ft 24 kts 310°
2026-05-05 14:01 30.49295 -81.69899 41 ft 19 kts 311°
2026-05-05 14:02 30.49297 -81.69982 41 ft 8 kts 228°
2026-05-05 14:02 30.49286 -81.69995 41 ft 0 kts 226°
2026-05-05 14:02 30.49258 -81.70026 40 ft 20 kts 223°
2026-05-05 14:03 30.49191 -81.70040 41 ft 7 kts 150°
2026-05-05 14:03 30.49168 -81.70015 41 ft 0 kts 133°
2026-05-05 14:03 30.49017 -81.69813 42 ft 72 kts 130°
2026-05-05 14:04 30.48531 -81.69156 40 ft 140 kts 130°
2026-05-05 14:04 30.47809 -81.68160 398 ft 169 kts 130°
2026-05-05 14:04 30.47045 -81.67138 1335 ft 167 kts 132°
2026-05-05 14:04 30.46216 -81.66085 1868 ft 190 kts 133°
2026-05-05 14:05 30.45255 -81.64884 2335 ft 213 kts 133°
2026-05-05 14:05 30.44189 -81.63596 2888 ft 233 kts 133°
2026-05-05 14:05 30.43000 -81.62165 3355 ft 256 kts 133°
2026-05-05 14:05 30.41741 -81.60643 4117 ft 265 kts 133°
2026-05-05 14:06 30.40453 -81.59092 4993 ft 269 kts 133°
2026-05-05 14:06 30.39143 -81.57512 5898 ft 274 kts 134°
2026-05-05 14:06 30.37640 -81.56143 6846 ft 277 kts 152°
2026-05-05 14:06 30.35810 -81.55456 7746 ft 279 kts 176°
2026-05-05 14:07 30.33920 -81.55788 8737 ft 277 kts 205°
2026-05-05 14:07 30.32410 -81.57127 9751 ft 276 kts 233°
2026-05-05 14:07 30.31631 -81.59120 10536 ft 284 kts 259°
2026-05-05 14:07 30.31472 -81.61486 10923 ft 307 kts 271°
2026-05-05 14:08 30.31668 -81.64038 11287 ft 330 kts 277°
2026-05-05 14:08 30.32046 -81.66720 11832 ft 343 kts 279°
2026-05-05 14:08 30.32470 -81.69451 12628 ft 347 kts 279°
2026-05-05 14:08 30.32878 -81.72225 13438 ft 351 kts 278°
2026-05-05 14:09 30.33250 -81.75031 14196 ft 355 kts 278°
2026-05-05 14:09 30.33590 -81.77874 14910 ft 358 kts 277°
2026-05-05 14:09 30.33802 -81.79768 15364 ft 359 kts 277°
2026-05-05 14:09 30.34112 -81.82648 16080 ft 362 kts 277°
2026-05-05 14:10 30.34417 -81.85549 16837 ft 364 kts 277°
2026-05-05 14:10 30.34721 -81.88466 17587 ft 367 kts 277°
2026-05-05 14:10 30.35028 -81.91411 18344 ft 370 kts 278°
2026-05-05 14:10 30.35338 -81.94379 19030 ft 372 kts 278°
2026-05-05 14:11 30.35650 -81.97351 19745 ft 373 kts 278°
2026-05-05 14:11 30.35964 -82.00335 20480 ft 374 kts 279°
2026-05-05 14:11 30.36278 -82.03329 21202 ft 375 kts 279°
2026-05-05 14:11 30.36593 -82.06334 21938 ft 377 kts 279°
2026-05-05 14:12 30.36908 -82.09347 22671 ft 378 kts 279°
2026-05-05 14:12 30.37224 -82.12370 23431 ft 379 kts 279°
2026-05-05 14:12 30.37542 -82.15418 24061 ft 382 kts 280°
2026-05-05 14:12 30.37860 -82.18480 24617 ft 385 kts 280°
2026-05-05 14:13 30.38181 -82.21570 25191 ft 388 kts 280°
2026-05-05 14:13 30.38502 -82.24678 25785 ft 390 kts 281°
2026-05-05 14:13 30.38826 -82.27810 26384 ft 393 kts 281°
2026-05-05 14:13 30.39150 -82.30963 26933 ft 396 kts 281°
2026-05-05 14:14 30.39476 -82.34139 27507 ft 398 kts 281°
2026-05-05 14:14 30.39804 -82.37334 28052 ft 401 kts 282°
2026-05-05 14:14 30.40133 -82.40553 28566 ft 404 kts 281°
2026-05-05 14:14 30.40466 -82.43807 28998 ft 409 kts 281°
2026-05-05 14:15 30.40908 -82.48159 29652 ft 413 kts 282°
2026-05-05 14:15 30.41136 -82.50406 30009 ft 415 kts 282°
2026-05-05 14:15 30.41473 -82.53744 30457 ft 418 kts 282°
2026-05-05 14:15 30.41809 -82.57089 30937 ft 419 kts 282°
2026-05-05 14:16 30.42140 -82.60398 31418 ft 419 kts 282°
2026-05-05 14:16 30.42474 -82.63746 31884 ft 419 kts 283°
2026-05-05 14:16 30.42810 -82.67107 32328 ft 420 kts 283°
2026-05-05 14:16 30.43146 -82.70469 32734 ft 421 kts 283°
2026-05-05 14:17 30.43482 -82.73845 33126 ft 422 kts 283°
2026-05-05 14:17 30.43816 -82.77220 33651 ft 419 kts 284°
2026-05-05 14:17 30.44142 -82.80549 34296 ft 413 kts 284°
2026-05-05 14:17 30.44460 -82.83831 34856 ft 408 kts 284°
2026-05-05 14:18 30.44780 -82.87096 35246 ft 407 kts 284°
2026-05-05 14:18 30.45099 -82.90347 35623 ft 406 kts 284°
2026-05-05 14:18 30.45418 -82.93594 36022 ft 404 kts 284°
2026-05-05 14:18 30.45735 -82.96825 36426 ft 403 kts 284°
2026-05-05 14:19 30.46050 -83.00039 36806 ft 401 kts 284°
2026-05-05 14:19 30.46362 -83.03247 37177 ft 399 kts 284°
2026-05-05 14:19 30.46672 -83.06439 37562 ft 398 kts 284°
2026-05-05 14:19 30.46979 -83.09615 37919 ft 396 kts 284°
2026-05-05 14:20 30.47284 -83.12779 38279 ft 394 kts 284°
2026-05-05 14:20 30.47587 -83.15929 38606 ft 393 kts 284°
2026-05-05 14:20 30.47889 -83.19072 38948 ft 391 kts 284°
2026-05-05 14:20 30.48188 -83.22199 39176 ft 390 kts 284°
2026-05-05 14:21 30.48489 -83.25333 39363 ft 391 kts 284°
2026-05-05 14:21 30.48788 -83.28461 39548 ft 392 kts 284°
2026-05-05 14:21 30.49088 -83.31601 39747 ft 392 kts 284°
2026-05-05 14:21 30.49386 -83.34743 39947 ft 392 kts 283°
2026-05-05 14:22 30.49682 -83.37885 40085 ft 393 kts 283°
2026-05-05 14:22 30.49979 -83.41042 40102 ft 392 kts 283°
2026-05-05 14:22 30.50567 -83.47320 40100 ft 392 kts 283°
2026-05-05 14:23 30.51154 -83.53610 40074 ft 392 kts 283°
2026-05-05 14:23 30.51739 -83.59900 40096 ft 392 kts 283°
2026-05-05 14:24 30.52321 -83.66195 40098 ft 393 kts 283°
2026-05-05 14:24 30.52896 -83.72454 40096 ft 393 kts 283°
2026-05-05 14:25 30.53471 -83.78750 40092 ft 393 kts 283°
2026-05-05 14:25 30.54044 -83.85055 40090 ft 393 kts 283°
2026-05-05 14:26 30.54612 -83.91357 40088 ft 393 kts 283°
2026-05-05 14:26 30.54881 -83.97720 40091 ft 397 kts 278°
2026-05-05 14:27 30.54939 -84.04131 40096 ft 397 kts 278°
2026-05-05 14:27 30.55029 -84.10532 40101 ft 396 kts 279°
2026-05-05 14:28 30.55163 -84.16918 40085 ft 396 kts 279°
2026-05-05 14:28 30.55311 -84.23309 40090 ft 396 kts 279°
2026-05-05 14:29 30.55456 -84.29690 40078 ft 396 kts 279°
2026-05-05 14:29 30.55615 -84.36076 40096 ft 394 kts 281°
2026-05-05 14:30 30.56243 -84.42346 40093 ft 390 kts 284°
2026-05-05 14:30 30.57013 -84.48583 40094 ft 390 kts 284°
2026-05-05 14:31 30.57799 -84.54769 40089 ft 390 kts 284°
2026-05-05 14:31 30.58588 -84.61038 40091 ft 390 kts 284°
2026-05-05 14:32 30.59359 -84.67234 40070 ft 390 kts 284°
2026-05-05 14:32 30.60129 -84.73464 40084 ft 390 kts 284°
2026-05-05 14:33 30.60895 -84.79693 40085 ft 390 kts 284°
2026-05-05 14:33 30.61660 -84.85923 40085 ft 390 kts 284°
2026-05-05 14:34 30.62421 -84.92155 40084 ft 390 kts 284°
2026-05-05 14:34 30.63180 -84.98391 40083 ft 390 kts 284°
2026-05-05 14:35 30.63936 -85.04632 40087 ft 390 kts 284°
2026-05-05 14:35 30.64689 -85.10867 40087 ft 390 kts 284°
2026-05-05 14:36 30.65439 -85.17113 40087 ft 390 kts 284°
2026-05-05 14:36 30.66187 -85.23359 40086 ft 390 kts 283°
2026-05-05 14:37 30.66927 -85.29563 40080 ft 390 kts 283°
2026-05-05 14:37 30.67667 -85.35808 40077 ft 390 kts 283°
2026-05-05 14:38 30.68406 -85.42056 40082 ft 390 kts 283°
2026-05-05 14:38 30.69141 -85.48302 40079 ft 390 kts 283°
2026-05-05 14:39 30.69874 -85.54556 40086 ft 390 kts 283°
2026-05-05 14:39 30.70604 -85.60813 40091 ft 391 kts 283°
2026-05-05 14:40 30.71330 -85.67062 40087 ft 391 kts 283°
2026-05-05 14:40 30.72052 -85.73312 40087 ft 391 kts 283°
2026-05-05 14:41 30.72775 -85.79585 40080 ft 391 kts 283°
2026-05-05 14:41 30.73493 -85.85842 40071 ft 391 kts 283°
2026-05-05 14:42 30.74208 -85.92102 40077 ft 391 kts 283°
2026-05-05 14:42 30.74921 -85.98366 40069 ft 391 kts 283°
2026-05-05 14:43 30.75630 -86.04625 40066 ft 391 kts 283°
2026-05-05 14:43 30.76335 -86.10888 40069 ft 391 kts 283°
2026-05-05 14:44 30.77038 -86.17150 40067 ft 391 kts 283°
2026-05-05 14:44 30.77739 -86.23418 40074 ft 391 kts 283°
2026-05-05 14:45 30.78432 -86.29647 40084 ft 391 kts 283°
2026-05-05 14:45 30.79130 -86.35959 40087 ft 391 kts 283°
2026-05-05 14:46 30.79817 -86.42195 40091 ft 391 kts 283°
2026-05-05 14:46 30.80510 -86.48508 40091 ft 391 kts 283°
2026-05-05 14:47 30.81192 -86.54746 40092 ft 391 kts 282°
2026-05-05 14:47 30.81876 -86.61030 40090 ft 391 kts 282°
2026-05-05 14:48 30.82465 -86.67339 40085 ft 395 kts 278°
2026-05-05 14:48 30.82328 -86.73766 40080 ft 399 kts 274°
2026-05-05 14:49 30.81991 -86.80220 40057 ft 400 kts 273°
2026-05-05 14:49 30.81621 -86.86675 40060 ft 400 kts 273°
2026-05-05 14:50 30.81256 -86.93132 40061 ft 400 kts 273°
2026-05-05 14:50 30.80898 -86.99580 40059 ft 399 kts 273°
2026-05-05 14:51 30.80544 -87.06019 40059 ft 399 kts 273°
2026-05-05 14:51 30.80180 -87.12460 40054 ft 399 kts 273°
2026-05-05 14:52 30.79811 -87.18904 40035 ft 399 kts 273°
2026-05-05 14:52 30.79444 -87.25302 40031 ft 399 kts 273°
2026-05-05 14:53 30.79071 -87.31742 40024 ft 399 kts 273°
2026-05-05 14:53 30.78695 -87.38176 40023 ft 398 kts 272°
2026-05-05 14:54 30.78318 -87.44581 40046 ft 397 kts 272°
2026-05-05 14:54 30.77938 -87.50981 40040 ft 397 kts 272°
2026-05-05 14:55 30.77555 -87.57386 40048 ft 397 kts 272°
2026-05-05 14:55 30.77170 -87.63785 40042 ft 397 kts 272°
2026-05-05 14:56 30.76781 -87.70188 40041 ft 397 kts 272°
2026-05-05 14:56 30.76386 -87.76580 40043 ft 396 kts 272°
2026-05-05 14:57 30.75991 -87.82955 40044 ft 395 kts 272°
2026-05-05 14:57 30.75599 -87.89284 40043 ft 395 kts 272°
2026-05-05 14:58 30.75200 -87.95655 40050 ft 395 kts 272°
2026-05-05 14:58 30.74797 -88.02031 40044 ft 395 kts 272°
2026-05-05 14:59 30.74457 -88.07374 40040 ft 395 kts 272°
2026-05-05 14:59 30.74252 -88.10530 39816 ft 391 kts 272°
2026-05-05 14:59 30.74049 -88.13692 39571 ft 394 kts 272°
2026-05-05 15:00 30.73846 -88.16880 39330 ft 396 kts 272°
2026-05-05 15:00 30.73640 -88.20077 39093 ft 398 kts 272°
2026-05-05 15:00 30.73432 -88.23287 38858 ft 398 kts 272°
2026-05-05 15:00 30.73222 -88.26505 38610 ft 399 kts 272°
2026-05-05 15:01 30.73011 -88.29719 38342 ft 400 kts 272°
2026-05-05 15:01 30.72766 -88.32952 38063 ft 404 kts 269°
2026-05-05 15:01 30.72166 -88.36178 37785 ft 414 kts 261°
2026-05-05 15:01 30.71087 -88.39323 37529 ft 423 kts 254°
2026-05-05 15:02 30.69838 -88.42381 37271 ft 426 kts 253°
2026-05-05 15:02 30.68495 -88.45462 37006 ft 429 kts 252°
2026-05-05 15:02 30.67114 -88.48542 36728 ft 430 kts 251°
2026-05-05 15:02 30.65707 -88.51653 36295 ft 428 kts 251°
2026-05-05 15:03 30.64339 -88.54682 35550 ft 429 kts 251°
2026-05-05 15:03 30.62961 -88.57757 34696 ft 432 kts 251°
2026-05-05 15:03 30.61576 -88.60868 33751 ft 436 kts 251°
2026-05-05 15:03 30.60179 -88.64019 32755 ft 440 kts 250°
2026-05-05 15:04 30.58772 -88.67191 31782 ft 444 kts 250°
2026-05-05 15:04 30.57353 -88.70389 30775 ft 449 kts 250°
2026-05-05 15:04 30.55914 -88.73630 29652 ft 455 kts 250°
2026-05-05 15:04 30.54461 -88.76896 28709 ft 455 kts 249°
2026-05-05 15:05 30.51571 -88.83354 27214 ft 448 kts 249°
2026-05-05 15:05 30.50137 -88.86555 26445 ft 445 kts 248°
2026-05-05 15:05 30.48712 -88.89741 25683 ft 443 kts 248°
2026-05-05 15:06 30.47296 -88.92910 24916 ft 441 kts 248°
2026-05-05 15:06 30.45888 -88.96057 24174 ft 439 kts 248°
2026-05-05 15:06 30.44484 -88.99195 23369 ft 438 kts 247°
2026-05-05 15:06 30.43084 -89.02317 22535 ft 435 kts 247°
2026-05-05 15:07 30.41694 -89.05412 21761 ft 430 kts 247°
2026-05-05 15:07 30.40467 -89.08537 21045 ft 422 kts 253°
2026-05-05 15:07 30.39539 -89.11721 20334 ft 413 kts 258°
2026-05-05 15:07 30.38912 -89.14891 19667 ft 405 kts 264°
2026-05-05 15:08 30.38583 -89.18099 18980 ft 398 kts 269°
2026-05-05 15:08 30.38568 -89.21275 18304 ft 391 kts 275°
2026-05-05 15:08 30.38873 -89.24376 17597 ft 384 kts 282°
2026-05-05 15:08 30.39499 -89.27357 17017 ft 376 kts 288°
2026-05-05 15:09 30.40434 -89.30149 16484 ft 368 kts 295°
2026-05-05 15:09 30.41667 -89.32708 16004 ft 360 kts 302°
2026-05-05 15:09 30.43182 -89.34992 15598 ft 354 kts 310°
2026-05-05 15:09 30.44984 -89.36984 15352 ft 369 kts 318°
2026-05-05 15:10 30.47084 -89.38733 15111 ft 373 kts 325°
2026-05-05 15:10 30.49403 -89.40165 14864 ft 382 kts 332°
2026-05-05 15:10 30.51909 -89.41267 14623 ft 387 kts 339°
2026-05-05 15:10 30.54532 -89.42010 14390 ft 390 kts 346°
2026-05-05 15:11 30.57234 -89.42385 14160 ft 393 kts 352°
2026-05-05 15:11 30.59972 -89.42388 13920 ft 395 kts 359°
2026-05-05 15:11 30.62721 -89.42019 13683 ft 398 kts
2026-05-05 15:11 30.65411 -89.41529 13406 ft 394 kts 358°
2026-05-05 15:12 30.68070 -89.41992 13172 ft 382 kts 337°
2026-05-05 15:12 30.70507 -89.43191 13158 ft 380 kts 331°
2026-05-05 15:12 30.72771 -89.44745 13149 ft 377 kts 321°
2026-05-05 15:12 30.74626 -89.46867 13144 ft 373 kts 305°
2026-05-05 15:13 30.75835 -89.49505 13147 ft 371 kts 288°
2026-05-05 15:13 30.76266 -89.52449 13146 ft 371 kts 271°
2026-05-05 15:13 30.75884 -89.55413 13157 ft 374 kts 255°
2026-05-05 15:13 30.74726 -89.58136 13160 ft 380 kts 238°
2026-05-05 15:14 30.72882 -89.60358 13155 ft 387 kts 221°
2026-05-05 15:14 30.70504 -89.61863 13031 ft 395 kts 203°
2026-05-05 15:14 30.67780 -89.62391 12776 ft 402 kts 183°
2026-05-05 15:14 30.65012 -89.62158 12540 ft 403 kts 178°
2026-05-05 15:15 30.62223 -89.61859 12291 ft 401 kts 179°
2026-05-05 15:15 30.59410 -89.61633 12041 ft 399 kts 180°
2026-05-05 15:15 30.56687 -89.61467 11799 ft 396 kts 181°
2026-05-05 15:15 30.53942 -89.61331 11559 ft 394 kts 181°
2026-05-05 15:16 30.51213 -89.61214 11316 ft 391 kts 181°
2026-05-05 15:16 30.48497 -89.61107 11066 ft 389 kts 181°
2026-05-05 15:16 30.45795 -89.61006 10840 ft 387 kts 181°
2026-05-05 15:16 30.43113 -89.60910 10609 ft 385 kts 181°
2026-05-05 15:17 30.40439 -89.60816 10372 ft 383 kts 181°
2026-05-05 15:17 30.37774 -89.60722 10128 ft 382 kts 181°
2026-05-05 15:17 30.35121 -89.60629 9930 ft 378 kts 181°
2026-05-05 15:17 30.32546 -89.60537 9714 ft 361 kts 181°
2026-05-05 15:18 30.30101 -89.60449 9574 ft 342 kts 181°
2026-05-05 15:18 30.27789 -89.60366 9466 ft 323 kts 181°
2026-05-05 15:18 30.25599 -89.60290 9357 ft 306 kts 181°
2026-05-05 15:18 30.23567 -89.60429 9242 ft 288 kts 194°
2026-05-05 15:19 30.21754 -89.61229 9122 ft 276 kts 215°
2026-05-05 15:19 30.20396 -89.62759 8997 ft 273 kts 239°
2026-05-05 15:19 30.19525 -89.64706 8868 ft 273 kts 246°
2026-05-05 15:19 30.18763 -89.66722 8720 ft 273 kts 247°
2026-05-05 15:20 30.18017 -89.68729 8486 ft 272 kts 247°
2026-05-05 15:20 30.17271 -89.70732 8227 ft 271 kts 247°
2026-05-05 15:20 30.16543 -89.72733 7977 ft 270 kts 249°
2026-05-05 15:20 30.16077 -89.74827 7746 ft 269 kts 259°
2026-05-05 15:21 30.15782 -89.76961 7504 ft 268 kts 261°
2026-05-05 15:21 30.15507 -89.79096 7272 ft 268 kts 260°
2026-05-05 15:21 30.15231 -89.81221 7032 ft 267 kts 260°
2026-05-05 15:21 30.14956 -89.83316 6803 ft 266 kts 259°
2026-05-05 15:22 30.14677 -89.85426 6574 ft 265 kts 259°
2026-05-05 15:22 30.14397 -89.87528 6331 ft 264 kts 259°
2026-05-05 15:22 30.14117 -89.89623 6086 ft 263 kts 259°
2026-05-05 15:22 30.13837 -89.91713 5833 ft 263 kts 259°
2026-05-05 15:23 30.13557 -89.93800 5578 ft 262 kts 259°
2026-05-05 15:23 30.13278 -89.95876 5345 ft 262 kts 259°
2026-05-05 15:23 30.12998 -89.97958 5118 ft 262 kts 259°
2026-05-05 15:23 30.12720 -90.00034 4965 ft 260 kts 259°
2026-05-05 15:24 30.12453 -90.02097 4875 ft 260 kts 258°
2026-05-05 15:24 30.12178 -90.04159 4733 ft 260 kts 258°
2026-05-05 15:24 30.11890 -90.06225 4592 ft 260 kts 258°
2026-05-05 15:24 30.11605 -90.08283 4459 ft 259 kts 258°
2026-05-05 15:25 30.11327 -90.10329 4332 ft 258 kts 259°
2026-05-05 15:25 30.11047 -90.12387 4205 ft 260 kts 259°
2026-05-05 15:25 30.10767 -90.14450 4089 ft 260 kts 259°
2026-05-05 15:25 30.10489 -90.16505 3959 ft 260 kts 259°
2026-05-05 15:26 30.10208 -90.18569 3827 ft 259 kts 258°
2026-05-05 15:26 30.09932 -90.20597 3713 ft 259 kts 259°
2026-05-05 15:26 30.09651 -90.22659 3584 ft 261 kts 258°
2026-05-05 15:26 30.09368 -90.24724 3472 ft 260 kts 258°
2026-05-05 15:27 30.09086 -90.26791 3344 ft 261 kts 258°
2026-05-05 15:27 30.08802 -90.28858 3222 ft 260 kts 258°
2026-05-05 15:27 30.08520 -90.30919 3098 ft 259 kts 257°
2026-05-05 15:27 30.08239 -90.32970 2977 ft 259 kts 258°
2026-05-05 15:28 30.07957 -90.35020 2847 ft 258 kts 258°
2026-05-05 15:28 30.07676 -90.37062 2724 ft 258 kts 258°
2026-05-05 15:28 30.07394 -90.39114 2623 ft 257 kts 257°
2026-05-05 15:28 30.07120 -90.41109 2478 ft 254 kts 257°
2026-05-05 15:29 30.06840 -90.43124 2370 ft 255 kts 257°
2026-05-05 15:29 30.06561 -90.45148 2265 ft 253 kts 257°
2026-05-05 15:29 30.06286 -90.47140 2116 ft 250 kts 257°
2026-05-05 15:29 30.06006 -90.49134 2024 ft 252 kts 257°
2026-05-05 15:30 30.05728 -90.51127 1993 ft 250 kts 257°
2026-05-05 15:30 30.05390 -90.53100 2001 ft 249 kts 250°
2026-05-05 15:30 30.04576 -90.54827 2001 ft 244 kts 226°
2026-05-05 15:30 30.03203 -90.55935 2005 ft 241 kts 201°
2026-05-05 15:31 30.01553 -90.56214 1999 ft 242 kts 176°
2026-05-05 15:31 29.99955 -90.55623 1980 ft 242 kts 151°
2026-05-05 15:31 29.98787 -90.54309 2010 ft 231 kts 127°
2026-05-05 15:31 29.98227 -90.52628 2006 ft 221 kts 103°
2026-05-05 15:32 29.98304 -90.50929 2022 ft 205 kts 79°
2026-05-05 15:32 29.98792 -90.49480 2039 ft 184 kts 70°
2026-05-05 15:32 29.99310 -90.48225 2022 ft 163 kts 68°
2026-05-05 15:32 29.99778 -90.47119 2007 ft 149 kts 71°
2026-05-05 15:33 30.00219 -90.46047 2010 ft 148 kts 71°
2026-05-05 15:33 30.00653 -90.44972 1990 ft 148 kts 70°
2026-05-05 15:33 30.01091 -90.43895 2001 ft 149 kts 71°
2026-05-05 15:33 30.01531 -90.42811 1980 ft 149 kts 71°
2026-05-05 15:34 30.01970 -90.41724 1997 ft 150 kts 69°
2026-05-05 15:34 30.02371 -90.40617 1970 ft 147 kts 82°
2026-05-05 15:34 30.02414 -90.39472 1863 ft 141 kts 104°
2026-05-05 15:34 30.02193 -90.38390 1693 ft 138 kts 115°
2026-05-05 15:35 30.01902 -90.37331 1520 ft 139 kts 114°
2026-05-05 15:35 30.01619 -90.36269 1339 ft 138 kts 113°
2026-05-05 15:35 30.01356 -90.35200 1175 ft 138 kts 112°
2026-05-05 15:35 30.01102 -90.34141 995 ft 138 kts 111°
2026-05-05 15:36 30.00844 -90.33074 818 ft 137 kts 108°
2026-05-05 15:36 30.00592 -90.32026 673 ft 136 kts 113°
2026-05-05 15:36 30.00340 -90.30985 509 ft 132 kts 109°
2026-05-05 15:36 30.00097 -90.29975 368 ft 130 kts 115°
2026-05-05 15:37 29.99852 -90.28970 222 ft 130 kts 111°
2026-05-05 15:37 29.99618 -90.27960 37 ft 128 kts 112°
2026-05-05 15:37 29.99379 -90.27013 16 ft 111 kts 110°
2026-05-05 15:37 29.99240 -90.26420 15 ft 49 kts 104°
2026-05-05 15:38 29.99150 -90.26054 13 ft 45 kts 106°
2026-05-05 15:38 29.99092 -90.25815 14 ft 27 kts 105°
2026-05-05 15:38 29.99087 -90.25647 13 ft 14 kts 49°
2026-05-05 15:38 29.99153 -90.25627 12 ft 11 kts
2026-05-05 15:39 29.99205 -90.25675 11 ft 12 kts 297°
2026-05-05 15:39 29.99239 -90.25774 10 ft 15 kts 303°
2026-05-05 15:39 29.99321 -90.25844 10 ft 15 kts 351°
2026-05-05 15:39 29.99424 -90.25851 10 ft 6 kts 346°
2026-05-05 15:40 29.99425 -90.25851 10 ft 0 kts 352°
2026-05-05 15:40 29.99464 -90.25820 11 ft 11 kts 37°
2026-05-05 15:40 29.99511 -90.25775 13 ft 0 kts 40°
2026-05-05 15:40 29.99516 -90.25772 13 ft 2 kts 40°
2026-05-05 15:41 29.99520 -90.25767 13 ft 0 kts 40°
2026-05-05 16:27 29.99508 -90.25779 14 ft 4 kts 45°
2026-05-05 16:27 29.99490 -90.25802 14 ft 4 kts 57°
2026-05-05 16:27 29.99479 -90.25829 15 ft 4 kts 83°
2026-05-05 16:28 29.99482 -90.25853 14 ft 3 kts 149°
2026-05-05 16:28 29.99488 -90.25857 13 ft 0 kts 153°
2026-05-05 16:31 29.99482 -90.25853 14 ft 7 kts 153°
2026-05-05 16:31 29.99393 -90.25838 10 ft 15 kts 188°
2026-05-05 16:32 29.99345 -90.25904 9 ft 11 kts 282°
2026-05-05 16:32 29.99366 -90.25998 9 ft 13 kts 285°
2026-05-05 16:32 29.99392 -90.26106 12 ft 14 kts 285°
2026-05-05 16:32 29.99420 -90.26220 14 ft 15 kts 285°
2026-05-05 16:33 29.99454 -90.26361 14 ft 29 kts 285°
2026-05-05 16:33 29.99519 -90.26633 18 ft 37 kts 285°
2026-05-05 16:33 29.99588 -90.26923 19 ft 38 kts 285°
2026-05-05 16:33 29.99663 -90.27224 12 ft 40 kts 285°
2026-05-05 16:34 29.99737 -90.27533 10 ft 33 kts 285°
2026-05-05 16:34 29.99714 -90.27658 11 ft 16 kts 214°
2026-05-05 16:34 29.99600 -90.27708 7 ft 19 kts 200°